Location: Absher
(46.5583°N, 107.9840°W)
Time: 07:37:09
(UTC+00:00)

STRAND 1 - Pass Details

Date: 05 April 2023
Orbit: 767 x 779 km, 98.4° (Epoch: 03 June)

Event Time Altitude Azimuth Distance (km) Brightness Sun altitude
Rises 02:50:52 0° 7° (N) 3,250 ? -11.7°
Reaches altitude 10° 02:53:17 10° 1° (N) 2,319 ? -12.1°
Maximum altitude 02:58:02 41° 293° (WNW) 1,116 ? -12.9°
Drops below altitude 10° 03:02:45 10° 224° (SW) 2,304 ? -13.6°
Sets 03:05:09 0° 217° (SW) 3,227 ? -14.0°
